TimeAKST,TemperatureF,Dew PointF,Humidity,Sea Level PressureIn,VisibilityMPH,Wind Direction,Wind SpeedMPH,Gust SpeedMPH,PrecipitationIn,Events,Conditions,WindDirDegrees,DateUTC
12:53 AM,35.1,34.0,96,30.06,9.0,Calm,Calm,-,0.01,,Overcast,0,2014-01-29 09:53:00
1:53 AM,36.0,34.0,93,30.06,10.0,North,3.5,-,0.00,,Overcast,350,2014-01-29 10:53:00
3:38 AM,35.6,35.6,100,30.07,3.0,Calm,Calm,-,0.02,Rain,Light Rain,0,2014-01-29 12:38:00
3:53 AM,36.0,35.1,97,30.07,5.0,Calm,Calm,-,0.03,Rain,Light Rain,0,2014-01-29 12:53:00
4:15 AM,35.6,35.6,100,30.07,6.0,Calm,Calm,-,0.00,Rain,Light Rain,0,2014-01-29 13:15:00
4:50 AM,35.6,35.6,100,30.07,10.0,NNW,3.5,-,0.01,,Overcast,340,2014-01-29 13:50:00
4:53 AM,36.0,35.1,97,30.07,10.0,NNW,3.5,-,0.01,,Overcast,340,2014-01-29 13:53:00
5:53 AM,35.1,34.0,96,30.07,8.0,Calm,Calm,-,N/A,,Overcast,0,2014-01-29 14:53:00
6:53 AM,35.1,34.0,96,30.06,10.0,Calm,Calm,-,N/A,,Overcast,0,2014-01-29 15:53:00
7:53 AM,35.1,34.0,96,30.07,6.0,Calm,Calm,-,N/A,,Overcast,0,2014-01-29 16:53:00
8:53 AM,36.0,35.1,97,30.08,10.0,Calm,Calm,-,0.00,,Overcast,0,2014-01-29 17:53:00
9:53 AM,35.1,34.0,96,30.09,10.0,Calm,Calm,-,0.00,,Overcast,0,2014-01-29 18:53:00
10:53 AM,36.0,35.1,97,30.09,10.0,Calm,Calm,-,0.01,,Overcast,0,2014-01-29 19:53:00
11:53 AM,37.0,36.0,96,30.11,10.0,Calm,Calm,-,N/A,,Overcast,0,2014-01-29 20:53:00
12:53 PM,37.9,37.0,97,30.11,8.0,Calm,Calm,-,N/A,,Overcast,0,2014-01-29 21:53:00
1:53 PM,39.9,37.9,93,30.11,10.0,Calm,Calm,-,N/A,,Overcast,0,2014-01-29 22:53:00
2:53 PM,41.0,39.0,93,30.11,10.0,Calm,Calm,-,0.00,,Overcast,0,2014-01-29 23:53:00
3:53 PM,41.0,39.0,93,30.12,10.0,Calm,Calm,-,N/A,,Overcast,0,2014-01-30 00:53:00
4:50 PM,37.4,37.4,100,30.11,1.5,Calm,Calm,-,N/A,,Overcast,0,2014-01-30 01:50:00
4:53 PM,37.9,37.0,97,30.12,0.8,Calm,Calm,-,N/A,,Overcast,0,2014-01-30 01:53:00
5:01 PM,37.4,37.4,100,30.12,1.2,Calm,Calm,-,N/A,,Overcast,0,2014-01-30 02:01:00
5:04 PM,39.2,37.4,93,30.12,3.0,Calm,Calm,-,N/A,,Overcast,0,2014-01-30 02:04:00
5:19 PM,37.4,37.4,100,30.12,1.8,Calm,Calm,-,N/A,,Overcast,0,2014-01-30 02:19:00
5:27 PM,37.4,37.4,100,30.12,3.0,Calm,Calm,-,N/A,,Overcast,0,2014-01-30 02:27:00
5:36 PM,37.4,37.4,100,30.12,2.5,Calm,Calm,-,N/A,,Overcast,0,2014-01-30 02:36:00
5:45 PM,37.4,37.4,100,30.13,1.8,Calm,Calm,-,N/A,,Overcast,0,2014-01-30 02:45:00
5:53 PM,37.0,36.0,96,30.13,0.8,Calm,Calm,-,N/A,,Overcast,0,2014-01-30 02:53:00
6:05 PM,35.6,35.6,100,30.13,1.2,Calm,Calm,-,N/A,,Overcast,0,2014-01-30 03:05:00
6:08 PM,35.6,35.6,100,30.13,2.0,Calm,Calm,-,N/A,,Overcast,0,2014-01-30 03:08:00
6:12 PM,35.6,35.6,100,30.13,3.0,Calm,Calm,-,N/A,,Overcast,0,2014-01-30 03:12:00
6:27 PM,35.6,35.6,100,30.13,10.0,Calm,Calm,-,N/A,,Overcast,0,2014-01-30 03:27:00
6:40 PM,35.6,35.6,100,30.13,1.8,Calm,Calm,-,N/A,,Overcast,0,2014-01-30 03:40:00
6:53 PM,36.0,35.1,97,30.13,5.0,NW,3.5,-,N/A,,Overcast,320,2014-01-30 03:53:00
7:34 PM,35.6,35.6,100,30.14,10.0,WNW,3.5,-,N/A,,Overcast,300,2014-01-30 04:34:00
7:43 PM,35.6,35.6,100,30.14,10.0,NNW,3.5,-,N/A,,Overcast,340,2014-01-30 04:43:00
7:53 PM,35.1,34.0,96,30.14,10.0,NNW,4.6,-,N/A,,Overcast,340,2014-01-30 04:53:00
8:53 PM,35.1,33.1,92,30.14,10.0,North,4.6,-,N/A,,Overcast,350,2014-01-30 05:53:00
9:04 PM,35.6,33.8,93,30.14,10.0,Calm,Calm,-,N/A,,Overcast,0,2014-01-30 06:04:00
9:53 PM,34.0,33.1,96,30.14,10.0,Calm,Calm,-,N/A,,Overcast,0,2014-01-30 06:53:00
10:15 PM,33.8,33.8,100,30.15,10.0,Calm,Calm,-,N/A,,Overcast,0,2014-01-30 07:15:00
10:53 PM,33.1,32.0,96,30.15,10.0,Calm,Calm,-,N/A,,Overcast,0,2014-01-30 07:53:00
11:53 PM,34.0,32.0,92,30.17,10.0,Calm,Calm,-,N/A,,Overcast,0,2014-01-30 08:53:00